Flag for U.S.A. Weather past 2 weeks in Mansfield, Texas, U.S.A.

Now
93 °F

Scattered clouds.


Feels Like: 95 °F
Forecast: 74 / 94 °F
Wind: 8 mph from Southeast

Location: Burleson-Rendon

Current Time: Sep 4, 2015 at 6:18:08 PM

Latest Report: Sep 4, 2015 at 5:46 PM


Visibility: 10 mi

Pressure: 29.90 "Hg

Humidity: 39%

Dew point: 64 °F

Location of MansfieldLocation

Historic Weather in Mansfield — Graph

°F

Mansfield temperature yesterday

Maximum temperature yesterday: 95 °F (at 3:47 PM)
Minimum temperature yesterday: 70 °F (at 6:15 AM)
Average temperature yesterday: 79 °F

Past Weeks' High & Low Weather Summary

 TemperatureHumidityPressure
High99 °F (Aug 23, 1:55 PM)95% (Aug 21, 3:55 AM)30.17 "Hg (Aug 21, 3:55 AM)
Low68 °F (Aug 28, 5:55 AM)27% (Aug 30, 3:47 PM)29.85 "Hg (Aug 22, 6:52 PM)
Average80 °F68%30.01 "Hg
* Reported Aug 20 4:51 PM — Sep 4 4:50 PM, Mansfield, Weather by CustomWeather, © 2015

Note: Actual official high and low records may vary slightly from our data, if they occured in-between our weather recording intervals... More about our weather records

Advertising

Mansfield weather history for previous 24 hours

 ConditionsComfort  
Time TempWeatherWind HumidityBarometerVisibility
4:50 PM
Fri, Sep 4
95 °FScattered clouds.6 mph36%29.90 "Hg10 mi
3:47 PM95 °FBroken clouds.9 mph36%29.92 "Hg10 mi
2:50 PM93 °FPartly sunny.9 mph41%29.94 "Hg10 mi
1:47 PM93 °FPartly sunny.9 mph41%29.96 "Hg10 mi
12:47 PM91 °FPartly sunny.9 mph49%29.97 "Hg10 mi
11:50 AM88 °FPartly sunny.7 mph55%29.98 "Hg10 mi
10:47 AM86 °FPartly sunny.6 mph62%29.99 "Hg10 mi
9:48 AM82 °FPartly sunny.6 mph70%29.98 "Hg10 mi
8:47 AM81 °FPassing clouds.No wind74%29.98 "Hg10 mi
7:55 AM75 °FClear.No wind89%29.97 "Hg10 mi
6:46 AM73 °FClear.6 mph89%29.94 "Hg7 mi
6:35 AM74 °FClear.3 mph85%29.94 "Hg10 mi
6:15 AM75 °FClear.3 mph85%29.94 "Hg10 mi
5:55 AM75 °FClear.6 mph83%29.93 "Hg10 mi
5:35 AM75 °FClear.6 mph81%29.93 "Hg10 mi
5:15 AM75 °FClear.6 mph81%29.93 "Hg10 mi
4:55 AM75 °FClear.5 mph81%29.93 "Hg10 mi
4:35 AM75 °FClear.5 mph80%29.93 "Hg10 mi
4:15 AM75 °FClear.5 mph78%29.93 "Hg10 mi
3:55 AM76 °FClear.6 mph77%29.92 "Hg10 mi
3:35 AM76 °FClear.3 mph76%29.92 "Hg10 mi
3:15 AM77 °FClear.6 mph75%29.92 "Hg10 mi
2:55 AM77 °FClear.6 mph73%29.92 "Hg10 mi
2:35 AM78 °FClear.5 mph73%29.92 "Hg10 mi
2:15 AM77 °FClear.5 mph74%29.92 "Hg10 mi
1:55 AM78 °FClear.6 mph74%29.91 "Hg10 mi
1:35 AM78 °FClear.5 mph73%29.91 "Hg10 mi
1:15 AM78 °FClear.3 mph71%29.91 "Hg10 mi
12:55 AM78 °FClear.3 mph70%29.91 "Hg10 mi
12:15 AM77 °FClear.No wind68%29.91 "Hg10 mi
11:55 PM
Thu, Sep 3
78 °FClear.3 mph66%29.91 "Hg10 mi
11:35 PM78 °FClear.No wind67%29.91 "Hg10 mi
11:15 PM78 °FClear.No wind65%29.91 "Hg10 mi
10:55 PM78 °FClear.No wind65%29.92 "Hg10 mi
10:15 PM79 °FClear.No wind64%29.91 "Hg10 mi
9:55 PM80 °FClear.No wind61%29.91 "Hg10 mi
9:35 PM81 °FClear.No wind61%29.91 "Hg10 mi
9:15 PM80 °FClear.No wind62%29.90 "Hg10 mi
8:55 PM82 °FClear.3 mph58%29.89 "Hg10 mi
8:35 PM83 °FSunny.3 mph55%29.88 "Hg10 mi
8:15 PM85 °FSunny.3 mph52%29.87 "Hg10 mi
6:55 PM91 °FPassing clouds.8 mph38%29.87 "Hg10 mi
Weather by CustomWeather, © 2015

See weather overviewHow to use our weather pages